Meteo Giornale » Osservazioni meteo Italia » Roma Fiumicino

ore: 17:50 - Osservazioni Meteo Roma Fiumicino
Lat. 41° 48' N Lon. 12° 14' E Alt. 2 metri s.l.m.

nuvoloso Europe/Rome

13 °C

Nuvoloso

Temp. 24 Ore

11 °C

16 °C

Nord

5.5 Km/h

Dew point 10 °C

Umidità 81 %

Visibilità  10 Km

Il sole sorge alle ore 07:28

Il sole tramonta alle ore 17:18

Data e Ora Cielo e Fenomeni T °C DP °C Um. % Pres. hPa Vis. km Vento km/h
Oggi h: 17:50 nuvoloso Nuvoloso 13 10 81 1022 10 N 5.5
Oggi h: 17:20 poco_nuvoloso Poco Nuvoloso 14 11 82 1022 10 S/SO 11.1
Oggi h: 16:50 poco_nuvoloso Poco Nuvoloso 14 11 82 1022 10 S/SO 9.3
Oggi h: 16:20 poco_nuvoloso Poco Nuvoloso 15 11 76 1022 10 S/SO 11.1
Oggi h: 15:50 poco_nuvoloso Poco Nuvoloso 15 11 76 1022 10 S 11.1
Oggi h: 15:20 poco_nuvoloso Poco Nuvoloso 16 11 72 1022 10 S/SO 13
Oggi h: 14:50 poco_nuvoloso Poco Nuvoloso 16 11 72 1022 10 S 11.1
Oggi h: 14:20 nuvoloso Nuvoloso 16 12 77 1022 10 S 9.3
Oggi h: 13:50 nuvoloso Nuvoloso 15 11 76 1022 10 S/SO 13
Oggi h: 13:20 nuvoloso Nuvoloso 16 12 77 1022 10 S/SO 11.1
Oggi h: 12:50 nuvoloso Nuvoloso 16 12 77 1023 10 S/SO 11.1
Oggi h: 12:20 nuvoloso Nuvoloso 16 12 77 1023 10 S/SO 13
Oggi h: 11:50 nuvoloso Nuvoloso 15 13 87 1023 10 S 9.3
Oggi h: 11:20 nuvoloso Nuvoloso 15 12 82 1023 10 S/SE 13
Oggi h: 10:50 nuvoloso Nuvoloso 14 12 87 1023 10 SE 14.8
Oggi h: 10:20 nuvoloso Nuvoloso 13 12 93 1023 10 SE 18.5
Oggi h: 09:50 nuvoloso Nuvoloso 13 11 87 1023 10 SE 16.7
Oggi h: 09:20 nuvoloso Nuvoloso 12 10 87 1023 10 SE 20.3
Oggi h: 08:50 nuvoloso Nuvoloso 12 11 93 1023 10 SE 18.5
Oggi h: 08:20 nuvoloso Nuvoloso 11 10 93 1022 8 SE 16.7
Oggi h: 07:50 molto_nuvoloso Molto Nuvoloso 11 10 93 1022 8 SE 24
Oggi h: 07:20 molto_nuvoloso Molto Nuvoloso 11 10 93 1022 7 SE 24
Oggi h: 06:50 coperto_pioggia Pioggia 11 10 93 1022 7 SE 20.3
Oggi h: 06:20 molto_nuvoloso Molto Nuvoloso 12 10 87 1022 9 SE 25.9
Oggi h: 05:20 molto_nuvoloso Molto Nuvoloso 12 10 87 1022 9 SE 18.5
Oggi h: 03:50 coperto_pioggia Pioggia Debole 12 9 81 1022 8 SE 20.3
Oggi h: 03:20 nuvoloso Nuvoloso 12 9 81 1022 9 SE 18.5
Oggi h: 02:50 coperto_pioggia Pioggia Debole 11 9 87 1023 10 SE 14.8
Oggi h: 02:20 coperto_pioggia Pioggia Debole 11 9 87 1023 8 SE 18.5
Oggi h: 01:50 coperto_pioggia Pioggia Debole 12 10 87 1023 8 SE 18.5
Oggi h: 01:20 coperto_pioggia Pioggia Debole 11 10 93 1023 8 SE 18.5
Oggi h: 00:50 molto_nuvoloso Molto Nuvoloso 11 10 93 1023 10 SE 16.7
Oggi h: 00:20 coperto_pioggia Pioggia 12 10 87 1024 8 SE 22.2
Ieri h: 23:50 coperto_pioggia Pioggia Debole 13 9 76 1024 10 SE 29.6
Ieri h: 23:20 molto_nuvoloso Molto Nuvoloso 13 9 76 1024 10 SE 24
Ieri h: 22:50 nuvoloso Nuvoloso 13 8 71 1024 10 SE 22.2
Ieri h: 22:20 nuvoloso Nuvoloso 13 8 71 1024 10 SE 18.5
Ieri h: 21:50 nuvoloso Nuvoloso 13 7 66 1024 10 SE 14.8
Ieri h: 21:20 nuvoloso Nuvoloso 12 7 71 1024 10 S/SE 13
Ieri h: 20:50 coperto_pioggia Pioggia Debole 12 8 76 1024 10 SE 16.7
Ieri h: 20:20 coperto_pioggia Pioggia Debole 12 8 76 1024 10 SE 18.5
Ieri h: 19:50 coperto_pioggia Pioggia Debole 13 8 71 1025 10 SE 13
Ieri h: 19:20 coperto_pioggia Pioggia Debole 12 8 76 1025 10 SE 13
Ieri h: 18:50 nuvoloso Nuvoloso 12 8 76 1024 10 SE 16.7
Ieri h: 18:20 nuvoloso Nuvoloso 12 9 81 1024 10 E/SE 14.8
Ieri h: 17:50 coperto_pioggia Pioggia Debole 12 9 81 1025 10 E/SE 14.8